Regional Weather Roundup
Issued by NWS

Home | Current Version | Previous Version | Graphics & Text | Print | Product List | Glossary On
Versions: 1 2 3 4 5 6 7 8 9 10 11 12 13 14 15 16 17 18 19 20 21 22 23 24 25 26 27 28 29 30 31 32 33 34 35 36 37 38 39 40 41 42 43 44 45 46 47 48 49 50
000
ASUS45 KPSR 191810
RWRAZ

ARIZONA HOURLY REGIONAL WEATHER ROUNDUP
NATIONAL WEATHER SERVICE PHOENIX AZ
1100 AM MST THU OCT 19 2017

NOTE: FAIR INDICATES FEW OR NO CLOUDS BELOW 12,000 FEET WITH NO
SIGNIFICANT WEATHER AND/OR OBSTRUCTIONS TO VISIBILITY.

AZZ001>003-036-191900-
NORTHWEST ARIZONA

CITY           SKY/WX    TMP DP  RH WIND       PRES   REMARKS
BULLHEAD CITY  FAIR      79  23  12 CALM      29.83S
KINGMAN        FAIR      82  35  18 SW14      29.95F
6HR MIN TEMP:  54; 6HR MAX TEMP:  82;

$$

AZZ004>008-015-016-018-191900-
NORTH CENTRAL ARIZONA

CITY           SKY/WX    TMP DP  RH WIND       PRES   REMARKS
GRAND CANYON   FAIR      67  30  25 SW9G17    30.14F
6HR MIN TEMP:  34; 6HR MAX TEMP:  68; 6HR PCP:  0.01;

WILLIAMS       PTSUNNY   70  28  21 S10G18    30.15S
PRESCOTT       FAIR      75  35  23 SW12      30.05F
6HR MIN TEMP:  52; 6HR MAX TEMP:  77;

FLAGSTAFF      FAIR      65  29  25 S12G21    30.17F
6HR MIN TEMP:  37; 6HR MAX TEMP:  66;

PAYSON           N/A     68  34  28 VRB5      30.11S
PAGE           PTSUNNY   66  33  29 NE7       30.04F
6HR MIN TEMP:  56; 6HR MAX TEMP:  66; 6HR PCP: TRACE;

$$

AZZ009>014-017-191900-
NORTHEAST ARIZONA

CITY           SKY/WX    TMP DP  RH WIND       PRES   REMARKS
WINSLOW        PTSUNNY   71  36  27 E9        30.08F
6HR MIN TEMP:  54; 6HR MAX TEMP:  72; 6HR PCP: TRACE;

SAINT JOHNS    PTSUNNY   74  33  22 VRB3      30.10F
6HR MIN TEMP:  54; 6HR MAX TEMP:  77;

WINDOW ROCK    PTSUNNY   66  33  29 SE6       30.19F
6HR MIN TEMP:  44; 6HR MAX TEMP:  67; 6HR PCP: TRACE;

SHOW LOW       FAIR      72  30  21 SW16      30.17S
$$

AZZ540-542>544-546-548-191900-
GREATER PHOENIX AREA

CITY           SKY/WX    TMP DP  RH WIND       PRES   REMARKS
PHOENIX        FAIR      86  42  21 S7        29.83F
6HR MIN TEMP:  74; 6HR MAX TEMP:  86;

BUCKEYE        FAIR      84  82  94 S5        29.84F HX 101
LUKE AFB       SUNNY     85  41  20 CALM      29.82F
6HR MIN TEMP:  69; 6HR MAX TEMP:  85;

DEER VALLEY    FAIR      86  37  17 S12       29.85S
6HR MIN TEMP:  72; 6HR MAX TEMP:  87;

SCOTTSDALE     FAIR      86  36  16 S9        29.87F
6HR MIN TEMP:  72; 6HR MAX TEMP:  87;

MESA-FALCON    MOSUNNY   88  41  19 SE7       29.86F
MESA-GATEWAY   MOSUNNY   82  43  24 SE9       29.87S
CHANDLER       PTSUNNY   84  39  20 CALM      29.85F
$$

AZZ539-553-191900-
SOUTHWEST MARICOPA COUNTY AND PINAL COUNTY

CITY           SKY/WX    TMP DP  RH WIND       PRES   REMARKS
CASA GRANDE    NOT AVBL
GILA BEND      MOSUNNY   88  39  18 SW6       29.82F
$$

AZZ503-504-507>509-191900-
SOUTHEAST ARIZONA

CITY           SKY/WX    TMP DP  RH WIND       PRES   REMARKS
TUCSON         FAIR      84  38  19 S5        29.96S
6HR MIN TEMP:  67; 6HR MAX TEMP:  85;

DAVIS-MONTHAN  PTSUNNY   84  32  15 SW6       29.93F
RYAN FIELD     SUNNY     82  39  21 CALM      29.94F
NOGALES        FAIR      85  37  18 SW12      30.02F
6HR MIN TEMP:  54; 6HR MAX TEMP:  86;

SIERRA VISTA   CLOUDY    82  31  16 CALM      30.08F
6HR MIN TEMP:  58; 6HR MAX TEMP:  82;

DOUGLAS        FAIR      83  31  15 MISG      30.05F
6HR MIN TEMP:  52; 6HR MAX TEMP:  83;

SAFFORD        FAIR      81  46  29 S7        29.97F
6HR MIN TEMP:  63; 6HR MAX TEMP:  82;

$$

AZZ532-191900-
SOUTHWEST ARIZONA

CITY           SKY/WX    TMP DP  RH WIND       PRES   REMARKS
YUMA           FAIR      87  41  19 W8        29.81S
6HR MIN TEMP:  67; 6HR MAX TEMP:  87;

$$

CAZ041-043-047-048-061-525>527-560>570-191900-
SOUTHERN CALIFORNIA

CITY           SKY/WX    TMP DP  RH WIND       PRES   REMARKS
DOWNTOWN L.A.  FAIR      75  60  59 CALM      29.91F
6HR MIN TEMP:  64; 6HR MAX TEMP:  75;

L.A. AIRPORT   FAIR      73  63  70 SW6       29.92F
6HR MIN TEMP:  65; 6HR MAX TEMP:  73;

SAN DIEGO      PTSUNNY   69  61  75 S7        29.95S
6HR MIN TEMP:  66; 6HR MAX TEMP:  69;

BURBANK        FAIR      71  55  56 CALM      29.93S
6HR MIN TEMP:  60; 6HR MAX TEMP:  71;

ONTARIO        FAIR      70  57  63 CALM      29.93S HAZE
6HR MIN TEMP:  59; 6HR MAX TEMP:  70;

RIVERSIDE      FAIR      70  59  68 N3        29.93F
6HR MIN TEMP:  59; 6HR MAX TEMP:  70;

PALM SPRINGS   FAIR      89  46  22 CALM      29.81F
6HR MIN TEMP:  68; 6HR MAX TEMP:  89;

EL CENTRO NAS  FAIR      89  34  14 S8        29.80S
6HR MIN TEMP:  68; 6HR MAX TEMP:  89;

IMPERIAL       FAIR      88  31  13 VRB3      29.78S
6HR MIN TEMP:  70; 6HR MAX TEMP:  88;

BLYTHE         FAIR      83  37  19 CALM      29.81S
6HR MIN TEMP:  65; 6HR MAX TEMP:  83;

NEEDLES        FAIR      83  20   9 VRB3      29.84S
6HR MIN TEMP:  64; 6HR MAX TEMP:  83;

$$

NVZ020-UTZ003-191900-
SOUTHERN NEVADA-UTAH

CITY           SKY/WX    TMP DP  RH WIND       PRES   REMARKS
LAS VEGAS      FAIR      80  20  10 N3        29.88F
6HR MIN TEMP:  68; 6HR MAX TEMP:  80;

SALT LAKE CITY FAIR      65  34  31 NW8       29.98F
6HR MIN TEMP:  43; 6HR MAX TEMP:  67;

$$

NMZ009-TXZ055-191900-
NEW MEXICO-WEST TEXAS

CITY           SKY/WX    TMP DP  RH WIND       PRES   REMARKS
ALBUQUERQUE    PTSUNNY   64  41  42 VRB5      30.16F
6HR MIN TEMP:  51; 6HR MAX TEMP:  65;

EL PASO        FAIR      77  51  40 SE10      30.08F
6HR MIN TEMP:  63; 6HR MAX TEMP:  78; 6HR PCP: TRACE;

$$


........................KEY........................
SKY/WX - SKY CONDITION/WEATHER
TMP    - TEMPERATURE IN FAHRENHEIT
DP     - DEW POINT IN FAHRENHEIT
RH     - RELATIVE HUMIDITY IN PERCENT
WIND   - DIRECTION AND SPEED IN MILES PER HOUR (MPH)
VRB    - VARIABLE WIND DIRECTION
PRES   - MEAN SEA LEVEL PRESSURE IN INCHES OF MERCURY
         F - FALLING PRESSURE   R - RISING PRESSURE
         S - STEADY PRESSURE
VSB    - VISIBILITY IN MILES
HX     - HEAT INDEX IN FAHRENHEIT
WCI    - WIND CHILL INDEX IN FAHRENHEIT
TC     - TEMPERATURE IN CELSIUS WHICH IS ALSO KNOWN AS
         TEMPERATURE IN CENTIGRADE
AFB    - AIR FORCE BASE
         LUKE AFB IS LUKE AIR FORCE BASE
         DAVIS-MONTHAN IS DAVIS-MONTHAN AIR FORCE BASE
NAS    - NAVAL AIR STATION
         EL CENTRO NAS IS EL CENTRO NAVAL AIR STATION
N/A    - NOT AVAILABLE




USA.gov is the U.S. government's official web portal to all federal, state and local government web resources and services.